Weather reports worldwide

Advertisment
New Bern, nc, United States of America (2074441): temperature & dewpoint: 09.07.2019 21:00:00 - 15.07.2019 21:00:00 (EDT)New Bern, nc, United States of America (2074441): wind speed & gusts: 09.07.2019 21:00:00 - 15.07.2019 21:00:00 (EDT)New Bern, nc, United States of America (2074441): wind direction: 09.07.2019 21:00:00 - 15.07.2019 21:00:00 (EDT)New Bern, nc, United States of America (2074441): reduced air pressure: 09.07.2019 21:00:00 - 15.07.2019 21:00:00 (EDT)New Bern, nc, United States of America (2074441): visibility: 09.07.2019 21:00:00 - 15.07.2019 21:00:00 (EDT)New Bern, nc, United States of America (2074441): precipitation: 09.07.2019 21:00:00 - 15.07.2019 21:00:00 (EDT)
Date & Time tt [°C] td [°C] ff [km/h] ff [kn] fx [km/h] fx [kn] dd ppp [hPa] vv [km] rr [mm]
15.07.2019 21:00:00 - - - - - - - - - -
15.07.2019 20:00:00 29,4 22,2 8 4 - - SSW 1017,5 16 -
15.07.2019 19:00:00 30,0 23,9 5 3 - - SW 1017,1 16 -
15.07.2019 18:00:00 31,1 23,9 13 7 - - WSW 1016,8 16 -
15.07.2019 17:00:00 33,3 23,3 9 5 - - S 1017,0 16 -
15.07.2019 16:00:00 34,4 24,4 8 4 - - S 1017,4 16 -
15.07.2019 15:00:00 33,9 24,4 15 8 - - SSE 1017,8 16 -
15.07.2019 14:00:00 35,0 22,8 0 0 - - N 1018,1 16 -
15.07.2019 13:00:00 33,9 24,4 9 5 - - - 1018,4 16 -
15.07.2019 12:00:00 33,3 24,4 0 0 - - N 1018,8 16 -
15.07.2019 11:00:00 32,2 25,6 0 0 - - N 1018,6 16 -
15.07.2019 10:00:00 31,1 24,4 0 0 - - N 1018,6 16 -
15.07.2019 09:00:00 29,4 25,0 5 3 - - NW 1018,4 16 -
15.07.2019 08:00:00 27,8 25,6 0 0 - - N 1018,2 16 -
15.07.2019 07:00:00 24,4 23,9 0 0 - - N 1017,6 15 -
15.07.2019 06:00:00 23,9 23,3 0 0 - - N 1017,4 11 -
15.07.2019 05:00:00 24,4 24,4 0 0 - - N 1016,9 13 -
15.07.2019 04:00:00 25,0 24,4 0 0 - - N 1016,9 13 -
15.07.2019 03:00:00 25,6 24,4 0 0 - - N 1016,9 16 -
15.07.2019 02:00:00 25,6 24,4 5 3 - - S 1017,2 16 -
15.07.2019 01:00:00 25,0 24,4 0 0 - - N 1017,4 16 -
15.07.2019 00:00:00 26,1 25,0 0 0 - - N 1017,4 16 -
14.07.2019 23:00:00 26,7 24,4 0 0 - - N 1017,4 16 -
14.07.2019 22:00:00 27,2 23,9 5 3 - - S 1017,1 16 -
14.07.2019 21:00:00 27,8 23,3 0 0 - - N 1016,7 16 -
14.07.2019 20:00:00 30,0 22,8 8 4 - - SSE 1016,5 16 -
14.07.2019 19:00:00 31,7 23,9 13 7 - - SSW 1016,0 16 -
14.07.2019 18:00:00 32,8 24,4 15 8 - - S 1015,7 16 -
14.07.2019 17:00:00 33,9 23,3 5 3 - - - 1016,0 16 -
14.07.2019 16:00:00 33,3 23,9 0 0 - - N 1016,4 16 -
14.07.2019 15:00:00 33,9 24,4 0 0 - - N 1016,8 16 -
14.07.2019 14:00:00 32,8 24,4 11 6 - - ENE 1017,1 16 -
14.07.2019 13:00:00 32,8 25,0 8 4 - - SW 1017,5 16 -
14.07.2019 12:00:00 31,1 26,1 5 3 - - N 1018,0 16 -
14.07.2019 11:00:00 28,9 25,0 8 4 - - NW 1018,1 16 -
14.07.2019 10:00:00 26,7 23,3 0 0 - - N 1018,0 16 -
14.07.2019 09:00:00 24,4 23,3 0 0 - - N 1018,0 16 -
14.07.2019 08:00:00 23,9 22,8 5 3 - - SW 1017,7 16 -
14.07.2019 07:00:00 22,8 22,8 8 4 - - WSW 1017,1 16 -
14.07.2019 06:00:00 22,2 22,2 8 4 - - SSW 1016,8 16 -
14.07.2019 05:00:00 22,8 22,2 0 0 - - N 1016,1 16 -
14.07.2019 04:00:00 22,8 22,2 0 0 - - N 1015,8 16 -
14.07.2019 03:00:00 23,3 22,8 8 4 - - W 1016,3 16 -
14.07.2019 02:00:00 23,3 22,2 9 5 - - SW 1016,7 16 -
14.07.2019 01:00:00 23,9 22,2 8 4 - - SW 1016,8 16 -
14.07.2019 00:00:00 24,4 22,2 5 3 - - W 1016,9 16 -
13.07.2019 23:00:00 24,4 22,2 8 4 - - N 1016,8 16 -
13.07.2019 22:00:00 24,4 22,2 8 4 - - NNW 1016,8 16 -
13.07.2019 21:00:00 23,9 22,2 9 5 - - SW 1016,4 16 -
13.07.2019 20:00:00 25,0 22,2 11 6 - - SW 1015,9 16 -
13.07.2019 19:00:00 26,7 22,2 11 6 - - WSW 1015,5 16 -
13.07.2019 18:00:00 27,2 22,2 15 8 - - SW 1015,5 16 -
13.07.2019 17:00:00 27,8 23,9 15 8 - - SW 1015,0 16 -
13.07.2019 16:00:00 28,3 24,4 15 8 - - SSW 1015,2 16 -
13.07.2019 15:00:00 31,7 26,1 18 10 - - S 1014,8 16 -
13.07.2019 14:00:00 34,4 25,6 9 5 - - - 1014,9 16 -
13.07.2019 13:00:00 33,3 26,1 9 5 - - W 1015,9 16 -
13.07.2019 12:00:00 32,2 26,1 13 7 - - WSW 1016,1 16 -
13.07.2019 11:00:00 32,2 26,7 0 0 - - N 1016,4 16 -
13.07.2019 10:00:00 30,6 26,1 9 5 - - - 1016,2 16 -
13.07.2019 09:00:00 28,3 26,1 11 6 - - W 1015,8 16 -
13.07.2019 08:00:00 26,1 25,6 9 5 - - WSW 1015,5 16 -
13.07.2019 07:00:00 25,0 25,0 8 4 - - SW 1015,0 16 -
13.07.2019 06:00:00 25,0 24,4 8 4 - - SW 1014,5 16 -
13.07.2019 05:00:00 25,0 24,4 8 4 - - SW 1014,0 16 -
13.07.2019 04:00:00 25,0 24,4 8 4 - - SSW 1014,0 16 0,0
13.07.2019 03:00:00 25,6 25,0 8 4 - - S 1013,8 15 2,5
13.07.2019 02:00:00 25,6 24,4 9 5 - - W 1014,1 16 -
13.07.2019 01:00:00 25,6 24,4 9 5 - - SW 1014,3 16 -
13.07.2019 00:00:00 26,1 24,4 13 7 - - SW 1014,6 16 -
12.07.2019 23:00:00 26,1 25,0 8 4 - - SSW 1014,3 16 -
12.07.2019 22:00:00 27,2 25,0 13 7 - - SSW 1013,4 16 -
12.07.2019 21:00:00 27,2 25,6 9 5 - - SSW 1013,2 16 -
12.07.2019 20:00:00 28,3 25,0 8 4 - - SSW 1012,7 16 -
12.07.2019 19:00:00 29,4 25,6 11 6 - - SSW 1012,2 16 0,0
12.07.2019 18:00:00 31,1 24,4 13 7 - - WSW 1011,8 16 -
12.07.2019 17:00:00 31,7 24,4 22 12 - - WSW 1011,8 16 -
12.07.2019 16:00:00 31,1 24,4 13 7 - - W 1012,3 16 -
12.07.2019 15:00:00 31,7 25,0 24 13 - - W 1012,3 16 -
12.07.2019 14:00:00 31,7 25,6 16 9 - - WSW 1012,6 16 -
12.07.2019 13:00:00 30,0 25,0 13 7 - - WSW 1013,0 16 -
12.07.2019 12:00:00 28,3 24,4 21 11 - - WSW 1013,2 16 -
12.07.2019 11:00:00 28,3 25,0 13 7 - - SW 1013,4 16 -
12.07.2019 10:00:00 24,4 23,3 8 4 - - SW 1013,1 16 0,0
12.07.2019 09:00:00 21,7 21,1 5 3 - - S 1013,8 16 2,3
12.07.2019 08:00:00 21,7 21,1 11 6 - - S 1014,3 4,8 0,3
12.07.2019 07:00:00 21,7 21,7 9 5 - - SW 1014,6 11 1,5
12.07.2019 06:00:00 22,2 22,2 9 5 - - WNW 1014,0 2,8 4,3
12.07.2019 05:00:00 22,8 22,2 11 6 - - NE 1012,7 16 -
12.07.2019 04:00:00 22,2 21,7 5 3 - - S 1012,1 16 0,0
12.07.2019 03:00:00 21,7 21,7 5 3 - - ESE 1012,7 16 0,0
12.07.2019 02:00:00 21,7 21,1 0 0 - - N 1014,5 3,2 5,6
12.07.2019 01:00:00 22,2 21,7 0 0 - - N 1014,0 4,8 2,0
12.07.2019 00:00:00 22,8 22,2 16 9 - - W 1014,2 10 4,1
11.07.2019 23:00:00 26,7 25,0 13 7 - - SSW 1013,2 16 -
11.07.2019 22:00:00 26,7 24,4 15 8 - - SW 1013,1 16 -
11.07.2019 21:00:00 26,7 24,4 13 7 - - SSW 1012,0 16 -
11.07.2019 20:00:00 27,2 24,4 16 9 - - S 1011,4 16 -
11.07.2019 19:00:00 26,1 25,0 9 5 - - S 1011,6 16 -
11.07.2019 18:00:00 24,4 24,4 5 3 - - E 1012,1 16 -
11.07.2019 17:00:00 23,3 22,8 0 0 - - N 1012,4 16 2,8
11.07.2019 16:00:00 22,2 21,7 0 0 55 30 N 1013,3 4,8 2,5
11.07.2019 15:00:00 31,7 24,4 22 12 - - S 1012,8 16 -
11.07.2019 14:00:00 31,7 24,4 18 10 - - SSW 1013,6 16 -
11.07.2019 13:00:00 31,1 24,4 11 6 - - SSW 1014,4 16 -
11.07.2019 12:00:00 30,6 23,9 13 7 - - S 1015,1 16 -
11.07.2019 11:00:00 29,4 23,3 11 6 - - SW 1015,6 16 -
11.07.2019 10:00:00 29,4 23,9 8 4 - - - 1015,9 16 -
11.07.2019 09:00:00 27,8 23,3 13 7 - - SSW 1016,3 16 -
11.07.2019 08:00:00 26,1 25,0 16 9 - - SSW 1016,7 16 -
11.07.2019 07:00:00 25,0 25,0 8 4 - - SSW 1016,1 16 -
11.07.2019 06:00:00 24,4 24,4 0 0 - - N 1016,0 16 -
11.07.2019 05:00:00 24,4 24,4 0 0 - - N 1015,9 16 -
11.07.2019 04:00:00 25,0 24,4 0 0 - - N 1015,9 16 -
11.07.2019 03:00:00 25,0 24,4 9 5 - - SSW 1016,3 16 -
11.07.2019 02:00:00 25,0 24,4 9 5 - - SSW 1016,6 16 -
11.07.2019 01:00:00 - - - - - - - - - -
11.07.2019 00:00:00 25,0 24,4 9 5 - - SSW 1016,6 16 -
10.07.2019 23:00:00 25,6 23,9 11 6 - - S 1016,6 16 -
10.07.2019 22:00:00 26,1 23,3 5 3 - - S 1016,5 16 -
10.07.2019 21:00:00 26,7 23,9 9 5 - - SSW 1016,3 16 -
10.07.2019 20:00:00 28,3 23,9 9 5 - - S 1016,3 16 -
10.07.2019 19:00:00 29,4 23,9 11 6 - - SSW 1016,4 16 -
10.07.2019 18:00:00 30,0 23,9 16 9 - - S 1016,5 16 -
10.07.2019 17:00:00 31,1 23,9 18 10 - - SSE 1016,6 16 -
10.07.2019 16:00:00 31,1 24,4 0 0 - - N 1016,9 16 0,0
10.07.2019 15:00:00 29,4 23,9 22 12 - - S 1017,6 16 1,0
10.07.2019 14:00:00 29,4 23,9 11 6 - - S 1017,8 16 0,0
10.07.2019 13:00:00 30,0 23,9 9 5 - - ESE 1018,1 16 -
10.07.2019 12:00:00 30,6 21,1 13 7 - - E 1018,6 16 -
10.07.2019 11:00:00 29,4 22,2 11 6 - - - 1019,1 16 -
10.07.2019 10:00:00 27,8 20,6 8 4 - - ESE 1018,1 16 -
10.07.2019 09:00:00 26,1 23,3 9 5 - - ENE 1018,7 16 -
10.07.2019 08:00:00 25,0 22,8 11 6 - - E 1018,5 16 -
10.07.2019 07:00:00 23,3 22,2 8 4 - - ENE 1018,4 16 -
10.07.2019 06:00:00 22,8 21,7 5 3 - - ENE 1018,2 16 -
10.07.2019 05:00:00 22,8 21,1 5 3 - - E 1017,7 16 -
10.07.2019 04:00:00 22,8 21,1 11 6 - - NE 1017,5 16 -
10.07.2019 03:00:00 23,3 20,6 8 4 - - NE 1018,0 16 -
10.07.2019 02:00:00 22,8 20,0 8 4 - - NE 1018,3 16 -
10.07.2019 01:00:00 23,9 19,4 5 3 - - ENE 1018,0 16 -
10.07.2019 00:00:00 23,9 19,4 5 3 - - ENE 1018,1 16 -
09.07.2019 23:00:00 23,3 18,9 0 0 - - N 1018,4 16 -
09.07.2019 22:00:00 25,6 18,3 0 0 - - N 1018,2 16 -
09.07.2019 21:00:00 25,6 18,9 8 4 - - E 1018,3 16 -

tt = temperature
td = dewpoint
ff = wind speed
fx = gusts
dd = wind direction
ppp = reduced air pressure
vv = visibility
rr = precipitation

Next stations